| time (UTC) | temp F | wind direction | speed MPH | gust MPH | rain 1hr in | rain 24hr in | rain mn in | humidity % | barometer mb |
| 20260904064527 | 68 | 94 | 0.0 | 0.0 | 0.00 | 0.88 | 0.00 | 1014.7 | |
| 20260904063025 | 68 | 94 | 0.0 | 0.0 | 0.00 | 0.88 | 0.00 | 94 | 1014.6 |
| 20260904061526 | 68 | 94 | 0.0 | 0.0 | 0.00 | 0.88 | 0.00 | 94 | 1014.4 |
| 20260904060015 | 68 | 94 | 0.0 | 2.0 | 0.00 | 0.88 | 0.00 | 95 | 1014.5 |
| 20260904054511 | 69 | 94 | 0.0 | 1.0 | 0.00 | 0.88 | 0.00 | 95 | 1014.5 |
| 20260904053052 | 69 | 94 | 0.0 | 1.0 | 0.00 | 0.88 | 0.00 | 95 | 1014.5 |
| 20260904051526 | 69 | 94 | 0.0 | 0.0 | 0.00 | 0.88 | 0.00 | 95 | 1014.6 |
| 20260904050033 | 69 | 94 | 0.0 | 0.0 | 0.00 | 0.89 | 0.00 | 95 | 1014.9 |
| 20260904044528 | 68 | 94 | 0.0 | 2.0 | 0.00 | 0.89 | 0.00 | 95 | 1014.7 |
| 20260904043019 | 69 | 94 | 0.0 | 2.0 | 0.00 | 0.89 | 0.00 | 95 | 1014.6 |
| 20260904041515 | 69 | 94 | 0.0 | 2.0 | 0.00 | 0.89 | 0.00 | 94 | 1014.8 |
| 20260904040010 | 70 | 94 | 0.0 | 0.0 | 0.00 | 0.89 | 0.00 | 94 | 1014.9 |
| 20260904034528 | 70 | 94 | 0.0 | 0.0 | 0.00 | 0.89 | 0.89 | 94 | 1014.6 |
| 20260904033026 | 70 | 94 | 0.0 | 0.0 | 0.00 | 0.89 | 0.89 | 94 | 1014.5 |
| 20260904031529 | 70 | 94 | 0.0 | 2.0 | 0.00 | 0.89 | 0.89 | 94 | 1014.5 |
| 20260904030024 | 71 | 94 | 0.0 | 2.0 | 0.00 | 0.89 | 0.89 | 94 | 1014.5 |
| 20260904024523 | 71 | 94 | 0.0 | 0.0 | 0.00 | 0.89 | 0.89 | 94 | 1014.4 |
| 20260904023016 | 71 | 94 | 0.0 | 1.0 | 0.00 | 0.89 | 0.89 | 94 | 1014.4 |
| 20260904021517 | 71 | 54 | 0.0 | 2.0 | 0.09 | 0.89 | 0.89 | 94 | 1014.5 |
| 20260904020011 | 71 | 54 | 0.0 | 2.0 | 0.58 | 0.90 | 0.89 | 94 | 1014.3 |
| 20260904014506 | 71 | 54 | 0.0 | 2.0 | 0.58 | 0.90 | 0.89 | 94 | 1014.3 |
| 20260904013035 | 71 | 330 | 0.0 | 2.0 | 0.58 | 1.00 | 0.89 | 94 | 1014.1 |
| 20260904011531 | 72 | 225 | 1.0 | 9.0 | 0.49 | 1.19 | 0.80 | 93 | 1013.9 |
| 20260904010024 | 74 | 322 | 1.0 | 6.0 | 0.30 | 0.70 | 0.31 | 94 | 1013.6 |
| 20260904004518 | 74 | 65 | 4.0 | 11.0 | 0.30 | 0.70 | 0.31 | 93 | 1013.4 |
| 20260904003027 | 74 | 5 | 0.0 | 2.0 | 0.30 | 0.70 | 0.31 | 93 | 1013.3 |
| 20260904001512 | 74 | 51 | 2.0 | 5.0 | 0.30 | 0.73 | 0.31 | 92 | 1013.2 |
| 20260904000010 | 75 | 338 | 2.0 | 4.0 | 0.00 | 0.45 | 0.01 | 89 | 1013.3 |
| 20260903234530 | 75 | 317 | 0.0 | 6.0 | 0.00 | 0.47 | 0.01 | 87 | 1013.4 |
| 20260903233029 | 75 | 261 | 2.0 | 11.0 | 0.00 | 0.48 | 0.01 | 86 | 1013.4 |
| 20260903231528 | 75 | 304 | 3.0 | 10.0 | 0.00 | 0.69 | 0.01 | 86 | 1013.6 |
| 20260903230024 | 76 | 242 | 2.0 | 7.0 | 0.00 | 0.72 | 0.01 | 86 | 1013.5 |
| 20260903224515 | 76 | 283 | 1.0 | 5.0 | 0.00 | 0.72 | 0.01 | 86 | 1013.9 |
| 20260903223019 | 76 | 300 | 1.0 | 4.0 | 0.00 | 0.72 | 0.01 | 85 | 1013.4 |
| 20260903221509 | 76 | 327 | 1.0 | 5.0 | 0.00 | 0.72 | 0.01 | 84 | 1013.4 |
| 20260903220028 | 76 | 250 | 1.0 | 6.0 | 0.00 | 0.72 | 0.01 | 84 | 1013.2 |
| 20260903214528 | 77 | 294 | 2.0 | 5.0 | 0.00 | 0.72 | 0.01 | 83 | 1013.2 |
| 20260903213040 | 77 | 263 | 2.0 | 4.0 | 0.00 | 0.72 | 0.01 | 82 | 1012.9 |
| 20260903211528 | 77 | 261 | 1.0 | 2.0 | 0.00 | 0.72 | 0.01 | 82 | 1013.0 |
| 20260903210021 | 77 | 323 | 0.0 | 3.0 | 0.00 | 0.72 | 0.01 | 82 | 1013.3 |
| 20260903204516 | 77 | 309 | 1.0 | 4.0 | 0.00 | 0.72 | 0.01 | 82 | 1013.4 |
| 20260903203024 | 77 | 296 | 1.0 | 3.0 | 0.00 | 0.72 | 0.01 | 82 | 1013.7 |
| 20260903201531 | 77 | 334 | 3.0 | 8.0 | 0.00 | 0.72 | 0.01 | 80 | 1013.9 |
| 20260903200029 | 77 | 290 | 1.0 | 10.0 | 0.00 | 0.72 | 0.01 | 80 | 1014.1 |
| 20260903194538 | 78 | 265 | 2.0 | 6.0 | 0.00 | 0.72 | 0.01 | 81 | 1014.2 |
| 20260903193030 | 77 | 275 | 2.0 | 8.0 | 0.00 | 0.72 | 0.01 | 80 | 1014.2 |
| 20260903191522 | 78 | 269 | 2.0 | 10.0 | 0.00 | 0.72 | 0.01 | 79 | 1014.4 |
| 20260903190032 | 79 | 340 | 2.0 | 11.0 | 0.00 | 0.72 | 0.01 | 79 | 1014.4 |
| 20260903184529 | 78 | 5 | 1.0 | 9.0 | 0.00 | 0.72 | 0.01 | 79 | 1014.4 |
| 20260903183029 | 79 | 236 | 3.0 | 8.0 | 0.00 | 0.72 | 0.01 | 78 | 1014.4 |
| 20260903181528 | 78 | 313 | 3.0 | 9.0 | 0.00 | 0.72 | 0.01 | 80 | 1014.5 |
| 20260903180035 | 79 | 352 | 4.0 | 9.0 | 0.00 | 0.72 | 0.01 | 79 | 1014.4 |
| 20260903174526 | 79 | 342 | 3.0 | 8.0 | 0.00 | 0.72 | 0.01 | 79 | 1014.4 |
| 20260903173003 | 79 | 23 | 4.0 | 10.0 | 0.00 | 0.72 | 0.01 | 79 | 1014.7 |
| 20260903171504 | 78 | 329 | 3.0 | 9.0 | 0.00 | 0.72 | 0.01 | 80 | 1014.5 |
| 20260903170010 | 78 | 328 | 2.0 | 5.0 | 0.00 | 0.72 | 0.01 | 80 | 1014.7 |
| 20260903164508 | 77 | 288 | 5.0 | 11.0 | 0.00 | 0.72 | 0.01 | 80 | 1014.9 |
| 20260903163012 | 76 | 253 | 2.0 | 7.0 | 0.00 | 0.72 | 0.01 | 84 | 1014.7 |
| 20260903161518 | 75 | 282 | 2.0 | 8.0 | 0.00 | 0.73 | 0.01 | 85 | 1015.0 |
| 20260903160006 | 75 | 296 | 3.0 | 8.0 | 0.00 | 0.73 | 0.01 | 84 | 1015.1 |
| 20260903154503 | 74 | 297 | 1.0 | 7.0 | 0.00 | 0.73 | 0.01 | 85 | 1015.0 |
| 20260903153004 | 75 | 242 | 2.0 | 6.0 | 0.00 | 0.73 | 0.01 | 84 | 1015.2 |
| 20260903151504 | 75 | 285 | 1.0 | 10.0 | 0.00 | 0.73 | 0.01 | 84 | 1015.3 |
| 20260903150011 | 75 | 294 | 2.0 | 4.0 | 0.00 | 0.73 | 0.01 | 84 | 1015.2 |
| 20260903144510 | 75 | 304 | 4.0 | 6.0 | 0.00 | 0.73 | 0.01 | 83 | 1015.2 |
| 20260903143008 | 75 | 227 | 1.0 | 6.0 | 0.00 | 0.73 | 0.01 | 85 | 1015.0 |
| 20260903141509 | 74 | 238 | 2.0 | 6.0 | 0.00 | 0.73 | 0.01 | 88 | 1015.0 |
| 20260903140004 | 74 | 269 | 1.0 | 5.0 | 0.00 | 0.73 | 0.01 | 88 | 1015.1 |
| 20260903134505 | 74 | 275 | 1.0 | 4.0 | 0.00 | 0.73 | 0.01 | 89 | 1015.1 |
| 20260903133013 | 74 | 294 | 2.0 | 5.0 | 0.00 | 0.73 | 0.01 | 89 | 1015.4 |
| 20260903131508 | 73 | 346 | 1.0 | 4.0 | 0.00 | 0.73 | 0.01 | 89 | 1015.3 |
| 20260903130009 | 74 | 288 | 1.0 | 3.0 | 0.00 | 0.73 | 0.01 | 90 | 1015.3 |
| 20260903124504 | 73 | 289 | 0.0 | 2.0 | 0.00 | 0.73 | 0.01 | 91 | 1015.4 |
| 20260903123004 | 72 | 318 | 1.0 | 2.0 | 0.00 | 0.73 | 0.01 | 92 | 1015.5 |
| 20260903121509 | 72 | 310 | 0.0 | 2.0 | 0.00 | 0.73 | 0.01 | 92 | 1015.5 |
| 20260903120010 | 71 | 336 | 2.0 | 5.0 | 0.00 | 0.73 | 0.01 | 93 | 1015.4 |
| 20260903114504 | 70 | 304 | 0.0 | 3.0 | 0.00 | 0.73 | 0.01 | 94 | 1015.3 |
| 20260903113004 | 70 | 309 | 0.0 | 2.0 | 0.00 | 0.73 | 0.01 | 95 | 1015.1 |
| 20260903111508 | 69 | 286 | 0.0 | 2.0 | 0.00 | 0.73 | 0.01 | 1014.7 | |
| 20260903110007 | 68 | 286 | 0.0 | 1.0 | 0.00 | 0.73 | 0.01 | 1014.7 | |
| 20260903104504 | 68 | 286 | 0.0 | 2.0 | 0.00 | 0.73 | 0.01 | 95 | 1014.6 |
| 20260903103006 | 68 | 324 | 0.0 | 2.0 | 0.00 | 0.73 | 0.01 | 94 | 1014.3 |
| 20260903101505 | 68 | 324 | 0.0 | 2.0 | 0.00 | 0.73 | 0.01 | 94 | 1014.2 |
| 20260903100019 | 68 | 313 | 0.0 | 2.0 | 0.00 | 0.73 | 0.01 | 95 | 1014.3 |
| 20260903094509 | 67 | 313 | 0.0 | 2.0 | 0.00 | 0.73 | 0.01 | 95 | 1014.2 |
| 20260903093006 | 67 | 313 | 0.0 | 2.0 | 0.00 | 0.73 | 0.01 | 95 | 1013.9 |
| 20260903091507 | 67 | 313 | 0.0 | 2.0 | 0.00 | 0.73 | 0.01 | 94 | 1013.7 |
| 20260903090008 | 67 | 313 | 0.0 | 0.0 | 0.00 | 0.73 | 0.01 | 94 | 1013.8 |
| 20260903084515 | 67 | 313 | 0.0 | 0.0 | 0.00 | 0.73 | 0.01 | 94 | 1013.8 |
| 20260903083010 | 67 | 313 | 0.0 | 0.0 | 0.00 | 0.73 | 0.01 | 93 | 1013.8 |
| 20260903081507 | 67 | 313 | 0.0 | 0.0 | 0.00 | 0.73 | 0.01 | 93 | 1013.5 |
| 20260903080008 | 68 | 313 | 0.0 | 0.0 | 0.00 | 0.73 | 0.01 | 92 | 1013.3 |
| 20260903074515 | 68 | 313 | 0.0 | 2.0 | 0.00 | 0.73 | 0.01 | 91 | 1013.4 |
| 20260903073019 | 69 | 313 | 0.0 | 2.0 | 0.00 | 0.73 | 0.01 | 91 | 1013.3 |
| 20260903071515 | 69 | 313 | 0.0 | 2.0 | 0.00 | 0.73 | 0.01 | 91 | 1013.2 |
| 20260903070016 | 69 | 290 | 0.0 | 2.0 | 0.00 | 0.73 | 0.01 | 91 | 1013.2 |